Regional Weather Roundup
Issued by NWS

Home | Current Version | Previous Version | Text Only | Print | Product List | Glossary On
Versions: 1 2 3 4 5 6 7 8 9 10 11 12 13 14 15 16 17 18 19 20 21 22 23 24 25 26 27
000
ASUS43 KMPX 100510
RWRMN
WEATHER ROUNDUP FOR MINNESOTA
NATIONAL WEATHER SERVICE TWIN CITIES/CHANHASSEN MN
1200 AM CDT MON MAY 10 2021


NOTE: "FAIR" INDICATES FEW OR NO CLOUDS BELOW 12,000 FEET WITH NO
SIGNIFICANT WEATHER AND/OR OBSTRUCTIONS TO VISIBILITY. N/A MEANS
CURRENT SKY AND/OR WEATHER CONDITIONS ARE NOT AVAILABLE.

MNZ060>063-068>070-100600-
   Twin Cities Metro

CITY           SKY/WX    TMP DP  RH WIND       PRES   REMARKS
TWIN CITIES    PTCLDY    48  26  42 E9        30.10R
ST PAUL        CLEAR     48  27  44 NE7G20    30.11R
CRYSTAL        CLEAR     45  26  47 NE6       30.09R
BLAINE         CLEAR     45  28  53 NE8       30.11R
LAKEVILLE      CLEAR     46  25  42 NE5       30.09R
EDEN PRAIRIE   CLEAR     48  28  46 NE8G20    30.08R
SOUTH ST PAUL  CLEAR     47  25  42 CALM      30.10R
$$
MNZ001>005-007-008-013>017-022>024-027-028-100600-
   Northwest Minnesota

CITY           SKY/WX    TMP DP  RH WIND       PRES   REMARKS
BEMIDJI        MOCLDY    37  22  56 NE7       30.19S
HALLOCK        PTCLDY    41  21  45 NE6       30.25R
ROSEAU           N/A     45 N/A N/A NE7       30.25R
WARROAD        CLOUDY    43  25  49 NE12G17   30.25S
THIEF RVR FALL CLEAR     39  23  52 NE10      30.23S
CROOKSTON      CLEAR     37  21  52 NE5       30.23R
FOSSTON        CLEAR     34  19  55 NE7       30.21R WCI  28
DETROIT LAKES  MOCLDY    41  25  52 NE7       30.17R
MOORHEAD       PTCLDY    43  19  39 NE8       30.20R
PARK RAPIDS    PTCLDY    42  22  44 NE8       30.16R
MAHNOMEN       FAIR      38  24  56 NE8       30.19R
$$
MNZ006-009>011-018-025>026-100600-
   North Central Minnesota

CITY           SKY/WX    TMP DP  RH WIND       PRES   REMARKS
BAUDETTE       CLOUDY    40  24  53 NE8       30.24R
FLAG ISLAND    CLOUDY    41  21  45 E6        30.26R
INTL FALLS     CLOUDY    41  24  51 NE6       30.22R
WASKISH        CLOUDY    39  23  52 CALM      30.22S
BIG FORK       CLOUDY    39  23  52 NE6       30.25R
LONGVILLE      PTCLDY    39  19  45 NE3       30.16S
GRAND RAPIDS   CLOUDY    40  22  48 CALM      30.20R
CRANE LAKE     CLOUDY    37  27  65 N3        30.23S
ORR            CLOUDY    37  21  52 CALM      30.19R
COOK           CLOUDY    36  23  60 CALM      30.20R
WALKER         CLEAR     40  22  48 NE8       30.17S
$$
MNZ012-019>021-037-100600-
   Northeast Minnesota

CITY           SKY/WX    TMP DP  RH WIND       PRES   REMARKS
DULUTH         CLEAR     35  26  69 NE5       30.16S WCI  31
ELY            CLOUDY    36  21  55 CALM      30.18S
HIBBING        CLEAR     35  20  54 N3        30.18R
EVELETH        CLOUDY    38  24  56 CALM      30.19S
DULUTH HARBOR  PTCLDY    39  34  81 NE10      30.19S
TWO HARBORS    CLOUDY    36  27  69 CALM      30.16F
SILVER BAY     CLOUDY    32  25  74 CALM      30.17S
GRAND MARAIS     N/A     39  26  59 N8        30.18S
G MARAIS ARPRT PTCLDY    30  23  74 N5        30.15S WCI  25
$$
MNZ029>031-032-039>041-046>048-054>057-064-100600-
   West Central Minnesota

CITY           SKY/WX    TMP DP  RH WIND       PRES   REMARKS
FERGUS FALLS   MOCLDY    46  27  46 NE8       30.12R
WHEATON        MOCLDY    46  21  36 N8        30.15R
MORRIS         MOCLDY    45  19  36 NE10      30.12R
ALEXANDRIA     PTCLDY    45  26  47 NE9       30.13R
ELBOW LAKE     FAIR      47  29  49 NE9       30.14R
WADENA         PTCLDY    43  28  56 NE5       30.15R
GLENWOOD       PTCLDY    45  27  49 E13       30.12R
APPLETON       MOCLDY    52  21  30 NE13      30.08S
BENSON         CLOUDY    48  27  43 E12G17    30.10R
ORTONVILLE     MOCLDY    50  25  37 N15       30.10R
MADISON        MOCLDY    52  21  30 N9        30.10R
WILLMAR        FAIR      52  25  35 E17G25    30.12R
$$
MNZ033>034-036-042>043-049>051-058-059-100600-
   Central Minnesota

CITY           SKY/WX    TMP DP  RH WIND       PRES   REMARKS
ST CLOUD       PTCLDY    43  27  53 NE9       30.12R
SAUK CENTRE    FAIR      44  28  51 E14G22    30.13R
PAYNESVILLE    PTCLDY    46  30  53 NE12      30.11R
AITKIN         PTCLDY    36  27  69 CALM      30.17R
PINE RIVER     PTCLDY    43  28  56 NE3       30.19R
BRAINERD       PTCLDY    43  26  51 E7        30.16R
STAPLES        MOCLDY    46  28  49 NE3       30.15R
LONG PRAIRIE   FAIR      43  28  56 E10       30.14R
LITTLE FALLS   PTCLDY    43  23  45 NE5       30.15R
CAMP RIPLEY    CLOUDY    43  29  57 E7        30.16R
LITCHFIELD     PTCLDY    48  28  46 E12       30.10R
BUFFALO        PTCLDY    45  27  49 MISG      30.12R
MAPLE LAKE     CLEAR     45  29  54 NE9       30.12R
HUTCHINSON     CLEAR     47  28  47 NE9G18    30.10R
$$
MNZ037-044-045-052-053-100600-
   East Central Minnesota

CITY           SKY/WX    TMP DP  RH WIND       PRES   REMARKS
PRINCETON      CLEAR     45  28  53 NE7       30.13S
MORA           PTCLDY    39  28  65 NE3       30.16S
CAMBRIDGE      CLEAR     45  28  53 NE5       30.14R
RUSH CITY      CLOUDY    43  27  53 NE9       30.14R
MOOSE LAKE     CLEAR     36  28  75 CALM      30.16S
CLOQUET        CLEAR     30  23  74 CALM      30.16S
$$
MNZ071>073-080-081-089-090-097-098-100600-
   Southwest Minnesota

CITY           SKY/WX    TMP DP  RH WIND       PRES   REMARKS
MONTEVIDEO     MOCLDY    48  16  27 N8        30.08R
GRANITE FALLS  MOCLDY    44  28  53 W3        30.09R
CANBY          MOCLDY    51  32  48 NW12      30.11R
MARSHALL       MOCLDY    51  31  46 NW10      30.08S
REDWOOD FALLS  MOCLDY    50  23  34 CALM      30.06R
OLIVIA         PTCLDY    45  21  39 CALM      30.06S
PIPESTONE      MOCLDY    48  36  61 NW10      30.10S
WINDOM         MOCLDY    46  27  46 W7        30.08R
WORTHINGTON    MOCLDY    49  34  56 W14       30.09S
JACKSON        CLOUDY    50  32  50 NW9       30.09R
TRACY          CLOUDY    51  30  44 W5        30.08S
SLAYTON        MOCLDY    48  30  49 W12       30.10R
$$
MNZ065>067-074>077-082>085-091>093-100600-
   South Central Minnesota

CITY           SKY/WX    TMP DP  RH WIND       PRES   REMARKS
MANKATO        PTCLDY    51  28  41 E9        30.07R
NEW ULM        MOCLDY    52  21  30 E7        30.06S
ST JAMES       CLOUDY    50  21  32 NE3       30.06S
FAIRMONT       MOCLDY    47  22  37 NW5       30.07R
GLENCOE        PTCLDY    46  27  47 NE6       30.08R
FARIBAULT      PTCLDY    48  27  43 NE6       30.08R
OWATONNA       PTCLDY    48  27  43 NE10      30.06R
WASECA         MOCLDY    48  28  46 NE12      30.07S
ALBERT LEA     MOCLDY    50  27  40 NE9       30.05S
$$
MNZ078>079-086>088-094>096-100600-
   Southeast Minnesota

CITY           SKY/WX    TMP DP  RH WIND       PRES   REMARKS
ROCHESTER      PTCLDY    47  26  44 NE12      30.06R
RED WING       PTCLDY    46  21  36 E6        30.08R
STANTON        PTCLDY    46  28  48 E7        30.07S
DODGE CENTER   PTCLDY    46  25  42 NE9       30.06S
WINONA         CLEAR     48  28  46 E9G17     30.08R
AUSTIN         PTCLDY    48  28  46 NE8       30.05R
PRESTON        PTCLDY    46  28  47 NE12G17   30.06R
$$
ABBREVIATIONS USED IN REMARKS
   TC - TEMPERATURES IN CELSIUS
  WCI - WIND CHILL INDEX
   HX - HEAT INDEX
  VSB - VISIBILITY
$$



USA.gov is the U.S. government's official web portal to all federal, state and local government web resources and services.